Regional Weather Roundup
Issued by NWS

Home | Current Version | Previous Version | Graphics & Text | Print | Product List | Glossary On
Versions: 1 2 3 4 5 6 7 8 9 10 11 12 13 14 15 16 17 18 19 20 21 22 23 24 25 26 27 28 29 30 31 32 33 34 35 36 37 38 39 40 41 42 43 44 45 46 47 48 49 50
000
ASUS44 KMEG 030100
RWRTN
TENNESSEE HOURLY STATE WEATHER ROUNDUP
NATIONAL WEATHER SERVICE MEMPHIS TN
800 PM CDT SUN AUG 02 2015

TNZ002-004-019-021-049-052-054-088>092-030200-
WEST TENNESSEE

CITY           SKY/WX    TMP DP  RH WIND       PRES   REMARKS
MEMPHIS INTL   PTCLDY    86  69  56 CALM      29.89F HX  90
NWS MEMPHIS      N/A     82 N/A N/A MISG        N/A
JACKSON        MOCLDY    82  74  76 CALM      29.90F
DYERSBURG        N/A    N/A N/A N/A MISG        N/A
PARIS          CLEAR     79  72  78 CALM      29.92S
LEXINGTON      CLEAR     75  70  83 CALM      29.91S
$$

TNZ008-025-027-028-033-062-065-066-030200-
NORTH MIDDLE TENNESSEE

CITY           SKY/WX    TMP DP  RH WIND       PRES   REMARKS
NASHVILLE      PTCLDY    83  55  38 W3        29.92S
CLARKSVILLE    CLEAR     81  64  56 CALM      29.91S
CROSSVILLE     CLEAR     73  62  68 NW3       29.99S
$$

TNZ061-075-076-078-094-096-097-030200-
SOUTH MIDDLE TENNESSEE

CITY           SKY/WX    TMP DP  RH WIND       PRES   REMARKS
FAYETTEVILLE     N/A     79  61  53 CALM      29.93S
TULLAHOMA      CLEAR     75  63  64 CALM      29.95S
WINCHESTER     CLEAR     75  64  69 CALM      29.94S
COLUMBIA       CLEAR     82  64  54 CALM      29.92R
SHELBYVILLE    CLEAR     75  66  73 CALM      29.94R
$$

TNZ017-018-042-046-047-030200-
NORTHEAST TENNESSEE

CITY           SKY/WX    TMP DP  RH WIND       PRES   REMARKS
TRI CITIES     PTCLDY    74  59  59 CALM      29.97R
$$

TNZ012-013-036-069-073-074-030200-
CENTRAL EAST TENNESSEE

CITY           SKY/WX    TMP DP  RH WIND       PRES   REMARKS
KNOXVILLE      PTCLDY    82  63  52 N3        29.92R
OAK RIDGE      CLEAR     80  61  52 CALM      29.94S
$$

TNZ083-085-099-030200-
SOUTHEAST TENNESSEE

CITY           SKY/WX    TMP DP  RH WIND       PRES   REMARKS
CHATTANOOGA    MOCLDY    85  59  41 NE6       29.90S
$$

SKY/WX REPORTED AS FAIR MEANS FEW OR NO CLOUDS BELOW
12 THOUSAND FEET.



USA.gov is the U.S. government's official web portal to all federal, state and local government web resources and services.